Weather Roundup
Issued by NWS Chicago, IL

Home | Current Version | Previous Version | Graphics & Text | Print | Product List | Glossary On
Versions: 1 2 3 4 5 6 7 8 9 10 11 12 13 14 15 16 17 18 19 20 21 22 23 24 25 26 27 28 29 30 31 32 33 34 35 36 37 38 39 40 41 42 43 44 45 46 47 48 49 50
000
NZUS59 KLOT 231208
HRRLOT

CHICAGO AREA WEATHER ROUNDUP
NATIONAL WEATHER SERVICE CHICAGO/ROMEOVILLE IL
600 AM CST THU NOV 23 2017

NOTE: "FAIR" INDICATES FEW OR NO CLOUDS BELOW 12,000 FEET WITH NO
SIGNIFICANT WEATHER AND/OR OBSTRUCTIONS TO VISIBILITY.

* THESE STATIONS ARE NOT UNDER NWS QUALITY CONTROL. THEY ALSO MAY NOT
  REPORT WEATHER SUCH AS PRECIPITATION OR FOG.

ILZ005-006-012>014-019>023-231300-
NORTHEAST ILLINOIS

CITY           SKY/WX    TMP DP  RH WIND       PRES   REMARKS
OHARE          CLOUDY    34  20  56 SW9       30.05R WCI  27
6HR MIN TEMP:  32; 6HR MAX TEMP:  34;

MIDWAY         CLOUDY    34  21  59 SW10      30.06S WCI  26
6HR MIN TEMP:  32; 6HR MAX TEMP:  34;

AURORA         CLOUDY    33  22  63 S8        30.05S WCI  26
6HR MIN TEMP:  31; 6HR MAX TEMP:  33;

LANSING*       CLOUDY    32  25  74 SW8       30.08S WCI  25
JOLIET*        CLOUDY    34  23  64 S8        30.07S WCI  27
WAUKEGAN       CLOUDY    33  20  58 SW10      30.02S WCI  25
6HR MIN TEMP:  31; 6HR MAX TEMP:  33;

DUPAGE AIRPORT CLOUDY    32  23  69 S8        30.04S WCI  25
6HR MIN TEMP:  31; 6HR MAX TEMP:  32;

WHEELING       CLOUDY    34  20  56 SW7       30.06S WCI  28
6HR MIN TEMP:  33; 6HR MAX TEMP:  34;

KANKAKEE*      CLOUDY    32  23  70 W8        30.09F WCI  25
MORRIS*        CLOUDY    33  23  66 S10       30.06S WCI  25
LEWIS AIRPORT* CLOUDY    33  23  67 SW10      30.06S WCI  24
NORTHERLY ISL    N/A     33  19  56 SW8         N/A  WCI  26
$$

WIZ051-052-058>065-066-070>072-231300-
SOUTHEAST WISCONSIN

CITY           SKY/WX    TMP DP  RH WIND       PRES   REMARKS
MILWAUKEE      CLOUDY    34  21  59 S7        30.00F WCI  28
6HR MIN TEMP:  32; 6HR MAX TEMP:  34;

KENOSHA*       CLOUDY    34  19  54 SW10      30.01F WCI  26
RACINE*        CLOUDY    33  20  58 S7        30.03F WCI  27
BURLINGTON     CLOUDY    34  26  73 S10       29.99F WCI  26
WAUKESHA       CLOUDY    30  18  59 SW8       29.99F WCI  23
WEST BEND      CLOUDY    32  19  59 SW5       29.98F WCI  27
$$

INZ001>003-010>013-019-020-231300-
NORTHWEST INDIANA

CITY           SKY/WX    TMP DP  RH WIND       PRES   REMARKS
GARY*          CLOUDY    34  19  55 S7        30.08S WCI  28
MICHIGAN CITY* NOT AVBL
RENSSELAER*    NOT AVBL
VALPARAISO     CLOUDY    33  22  63 SW9       30.08S WCI  25
$$

LMZ740>746-231300-
SOUTHERN LAKE MICHIGAN

STATION/POSITION TIME  SKY/WX   TEMP WIND        PRES    VSBY
                                AIR  DIR/SP/G
                 (UTC)          (F)  (DEG/KT/KT) (MB)    (MI)
HARRISON CRIB    1140            35  210/ 15/ 17   N/A
BURNHAM HARBOR   1200            33  180/  4/ 11   N/A
CALUMET HARBOR   1142            33  200/  9/ 13 1017.3F
BURNS HARBOR     1140            33  200/ 10/ 13 1018.6F
MICHIGAN CITY    1140            32  190/ 11/ 13   N/A
$$

ABBREVIATIONS USED IN REMARKS
   TC - TEMPERATURE IN CELSIUS
  WCI - WIND CHILL INDEX
   HX - HEAT INDEX
  VSB - VISIBILITY
$$



USA.gov is the U.S. government's official web portal to all federal, state and local government web resources and services.